ISR825 LLBG-EYVI

Flight info

Callsign ISR825
Flight time N/A
Altitude 35999
Route DAFNA DCT VELOX N71 DESPO DCT VESAR UB545 MUT UL619 MAKOL DCT MOBRA DCT RUTUV DCT KENIN DCT ETUBO DCT OFEDE DCT LIZUP DCT DIMTA
Aircraft A320/M-SDE2FGHIJ1LORVWY/SB1

Departure

Time 2026-05-07 09:37
Airport Ben Gurion International Airport (LLBG)

Arrival

Time N/A
Airport Vilnius International Airport (EYVI)
Time Latitude Longitude Altitude Speed Heading
2026-05-07 08:59 32.00166 34.87503 120 ft 0 kts 261°
2026-05-07 09:10 32.00166 34.87504 120 ft 0 kts 261°
2026-05-07 09:20 32.00166 34.87505 120 ft 0 kts 261°
2026-05-07 09:26 32.00168 34.87520 117 ft 4 kts 257°
2026-05-07 09:26 32.00176 34.87560 120 ft 4 kts 280°
2026-05-07 09:26 32.00168 34.87586 115 ft 4 kts 311°
2026-05-07 09:26 32.00148 34.87598 125 ft 4 kts 11°
2026-05-07 09:27 32.00125 34.87587 120 ft 4 kts 27°
2026-05-07 09:27 32.00109 34.87579 117 ft 3 kts 29°
2026-05-07 09:27 32.00105 34.87576 120 ft 0 kts 31°
2026-05-07 09:30 32.00146 34.87605 116 ft 15 kts 31°
2026-05-07 09:30 32.00277 34.87697 119 ft 24 kts 31°
2026-05-07 09:30 32.00423 34.87801 117 ft 23 kts 32°
2026-05-07 09:31 32.00580 34.87914 118 ft 11 kts 31°
2026-05-07 09:31 32.00625 34.87946 118 ft 8 kts 31°
2026-05-07 09:31 32.00636 34.87953 119 ft 0 kts 31°
2026-05-07 09:31 32.00652 34.87964 116 ft 12 kts 31°
2026-05-07 09:32 32.00791 34.88066 120 ft 27 kts 32°
2026-05-07 09:32 32.00957 34.88186 116 ft 28 kts 32°
2026-05-07 09:32 32.01127 34.88309 118 ft 29 kts 32°
2026-05-07 09:32 32.01285 34.88432 119 ft 26 kts 40°
2026-05-07 09:33 32.01408 34.88596 118 ft 27 kts 56°
2026-05-07 09:33 32.01483 34.88778 119 ft 22 kts 73°
2026-05-07 09:33 32.01513 34.88950 118 ft 19 kts 80°
2026-05-07 09:33 32.01536 34.89098 120 ft 15 kts 79°
2026-05-07 09:34 32.01587 34.89162 118 ft 12 kts 359°
2026-05-07 09:34 32.01655 34.89150 117 ft 2 kts 350°
2026-05-07 09:34 32.01663 34.89148 119 ft 6 kts 350°
2026-05-07 09:34 32.01727 34.89135 116 ft 9 kts 350°
2026-05-07 09:35 32.01747 34.89097 115 ft 0 kts 260°
2026-05-07 09:36 32.01744 34.89075 115 ft 19 kts 260°
2026-05-07 09:36 32.01680 34.88652 120 ft 84 kts 259°
2026-05-07 09:36 32.01544 34.87767 119 ft 133 kts 259°
2026-05-07 09:36 32.01423 34.86550 251 ft 158 kts 262°
2026-05-07 09:37 32.01259 34.85278 868 ft 159 kts 263°
2026-05-07 09:37 32.00986 34.84008 1465 ft 160 kts 260°
2026-05-07 09:37 32.00703 34.82751 2108 ft 160 kts 260°
2026-05-07 09:37 32.00417 34.81463 2660 ft 161 kts 261°
2026-05-07 09:38 32.00128 34.80135 2958 ft 180 kts 259°